Regional Weather Roundup
Issued by NWS Upton, NY

Current Version | Previous Version | Text Only | Print | Product List | Glossary On
Versions: 1 2 3 4 5 6 7 8 9 10 11 12 13 14 15 16 17 18 19 20 21 22 23 24 25 26 27 28 29 30 31 32 33 34 35 36 37 38 39 40 41 42 43 44 45 46 47 48 49 50
734
ASUS41 KOKX 291308
RWROKX

REGIONAL WEATHER ROUNDUP
NATIONAL WEATHER SERVICE NEW YORK NY
900 AM EDT WED MAR 29 2017

NOTE: "FAIR" INDICATES FEW OR NO CLOUDS BELOW 12,000 FEET WITH NO
SIGNIFICANT WEATHER AND/OR OBSTRUCTIONS TO VISIBILITY.

NYZ071-072-176-178-NJZ106-104-291400-
NEW YORK CITY METRO AREA

CITY           SKY/WX    TMP DP  RH WIND       PRES   REMARKS
Central Park   CLOUDY    45  38  76 VRB6      30.08R
Wall St Helipt CLOUDY    45  40  82 VRB6      30.07R
LaGuardia APRT CLOUDY    47  38  71 N12       30.06R
Kennedy INTL   PTSUNNY   46  39  76 N17       30.06R
Breezy Point     N/A     45 N/A N/A N14G22      N/A
Newark/Liberty PTSUNNY   45  37  73 N12       30.07R
Teterboro      CLOUDY    44  39  82 N12       30.06R
$$

NYZ177-179-078>081-291400-
LONG ISLAND NEW YORK

CITY           SKY/WX    TMP DP  RH WIND       PRES   REMARKS
Jones Beach      N/A     45 N/A N/A N20G26      N/A
Matinecock PT    N/A     43 N/A N/A N17G28      N/A
Farmingdale    MOSUNNY   46  36  68 N21G31    30.03R
MacArthur/ISP  PTSUNNY   45  38  76 N14       30.02R
Shirley        CLOUDY    43  38  82 N12       30.03R
Westhampton    CLOUDY    45  38  76 N15G25    30.02R
East Hampton   CLOUDY    43  37  79 N12       30.00R
Montauk        NOT AVBL
$$

NYZ052-065-067-291400-
HUDSON VALLEY

CITY           SKY/WX    TMP DP  RH WIND       PRES   REMARKS
White Plains   PTSUNNY   43  35  73 N18G29    30.03R
Newburgh       PTSUNNY   41  39  93 VRB5      30.08R
Montgomery     CLOUDY    44  36  73 NW8       30.07R
Poughkeepsie   MOSUNNY   43  35  73 N12       30.07R
Albany         LGT RAIN  39  35  86 N6        30.12R WCI  35
$$

NJZ001-105-106-008-010-013-015-019>022-104-291400-
NEW JERSEY

CITY           SKY/WX    TMP DP  RH WIND       PRES   REMARKS
Newark/Liberty PTSUNNY   45  37  73 N12       30.07R
Teterboro      CLOUDY    44  39  82 N12       30.06R
Caldwell         N/A     44  36  73 VRB6      30.08R
Somerville     MOSUNNY   45  35  68 N10       30.07R
Linden         CLOUDY    46  37  71 N9        30.07R
Sussex         SUNNY     44  34  67 NW12G18   30.09R
Andover          N/A     43  32  65 N9G21     30.09R
Trenton        MOSUNNY   45  37  73 N12       30.08R
Millville      CLOUDY    48  42  80 N10       30.07R
Atlantic City  CLOUDY    48  41  76 N16       30.06R
Wrightstown    CLOUDY    45  39  80 N15       30.05R
Toms River     CLOUDY    45  42  89 N12       30.06R
Belmar         CLOUDY   N/A N/A N/A N10G21    30.06R
$$

PAZ047>061-062-071-291400-
EASTERN PENNSYLVANIA

CITY           SKY/WX    TMP DP  RH WIND       PRES   REMARKS
Philadelphia   MOSUNNY   46  35  65 N13       30.10R
Allentown      SUNNY     45  33  63 NW14      30.10S
Scranton       CLOUDY    41  32  70 N8        30.13R
$$

CTZ002-004>006-009-010-012-RIZ004-006-007-MAZ004-011-015-291400-
SOUTHERN NEW ENGLAND
 IN CT

CITY           SKY/WX    TMP DP  RH WIND       PRES   REMARKS
Bradley INTL   PTSUNNY   42  37  82 NW10      30.04R
Hartford       CLOUDY    44  37  76 N15       30.04R
Danbury        CLOUDY    41  35  79 N15G23    30.06R
Wtrbury/Oxford MOSUNNY   43  32  65 N14       30.03R
Bridgeport     SUNNY     48  35  60 N14G23    30.03R
Meriden        CLOUDY    44  35  70 N10       30.03R
New Haven      PTSUNNY   44  35  70 N14G22    30.02R
Chester        NOT AVBL
Groton         CLOUDY    45  37  73 N17G23    29.99R
Wilimantic     CLOUDY    44  35  70 MISG      30.02R

 IN RI

CITY           SKY/WX    TMP DP  RH WIND       PRES   REMARKS
Providence     CLOUDY    41  37  86 N14       30.00R
Block Island   CLOUDY    41  38  89 N10       29.98S
Westerly       CLOUDY    44  39  82 N13       29.99R
 IN MA

CITY           SKY/WX    TMP DP  RH WIND       PRES   REMARKS
Boston         CLOUDY    39  37  92 N10       30.01S WCI  32
Worcester      CLOUDY    37  31  78 NE12G22   29.98S WCI  29
Westfield      MOSUNNY   42  36  79 N13G20    30.03S
Provincetown   CLOUDY    39  37  92 N14G22    29.97S WCI  31
Nantucket      CLOUDY    41  38  89 N22G29    29.92S
$$

ANZ330-335-338-340-345-350-353-355-291400-
COASTAL MARINE OBSERVATIONS


STATION/POSITION TIME  SKY/WX   TEMP    WIND        PRES    VSBY  WAVE
                                AIR SEA DIR/SP/G                  HT/PER
                 (UTC)          (F)     (DEG/KT/KT) (MB)    (MI)  (FT/S)
NY HARB ENTRANCE 1150            44 42  350/ 10/ 12 1016.9          3/10
20 S FIRE ISLAND 1150            43 42  350/ 14/ 17 1015.8          4/ 9
GREAT SOUTH BAY  NOT AVBL
23 SSW MONTAUK P 1150            41 42              1015.4          3/ 9
15 E BARNEGAT LI 1230               44                N/A           4/ 9
HUDSON CANYON    1150            44 43  360/ 17/ 21 1014.7          5/ 5
KINGS POINT      1242            42 40              1017.5
EXECUTION ROCKS  NOT AVBL
CENTRAL LI SOUND 1230            42     360/ 10/ 17   N/A           1
EASTERN LI SOUND NOT AVBL
ROBBINS REEF     1242            45     340/ 13/ 17 1018.1
$$


>>>>>>>>>>>>>>>>>>>>>>>>>>>> KEY <<<<<<<<<<<<<<<<<<<<<<<<<<<
>                                                          <
>     SKY/WX - Sky Condition/Present Weather               <
>     TMP    - Temperature in Fahrenheit                   <
>     DP     - Dew Point in Fahrenheit                     <
>     RH     - Relative Humidity in Percent                <
>     WIND   - Direction (from) and Speed in MPH           <
>     PRES   - Mean Sea Level Pressure (inches of Hg)      <
>     WCI    - Wind Chill Index                            <
>     VSB    - VISIBILITY IN MILES                         <
>     HX     - HEAT INDEX                                  <
>     TC     - TEMPERATURE IN CELSIUS                      <
>     VRB    - VARIABLE WIND DIRECTION                     <
>                                                          <
>>>>>>>>>>>>>>>>>>>>>>>>>>>> KEY <<<<<<<<<<<<<<<<<<<<<<<<<<<




USA.gov is the U.S. government's official web portal to all federal, state and local government web resources and services.